Regional Weather Roundup
Issued by NWS Northern Indiana

Home | Current Version | Previous Version | Graphics & Text | Print | Product List | Glossary On
Versions: 1 2 3 4 5 6 7 8 9 10 11 12 13 14 15 16 17 18 19 20 21 22 23 24 25 26 27 28 29 30 31 32 33 34 35 36 37 38 39 40 41 42 43 44 45 46 47 48 49 50
000
ASUS43 KIWX 200100
RWRIWX

KIWX WEATHER ROUNDUP
NATIONAL WEATHER SERVICE NORTHERN INDIANA
900 PM EDT SUN OCT 19 2014

NOTE: "FAIR" INDICATES FEW OR NO CLOUDS BELOW 12,000 FEET WITH NO
SIGNIFICANT WEATHER AND/OR OBSTRUCTIONS TO VISIBILITY.

* THESE STATIONS ARE NOT UNDER NWS QUALITY CONTROL. THEY ALSO MAY NOT
  REPORT WEATHER SUCH AS PRECIPITATION OR FOG.

INZ001>027-200200-
NORTHERN INDIANA

CITY           SKY/WX    TMP DP  RH WIND       PRES   REMARKS
GARY*          CLOUDY    54  41  62 S14       29.98F
SOUTH BEND     CLOUDY    51  40  65 S9        30.01F
GOSHEN         CLOUDY    50  39  66 S9        30.01F
ANGOLA*        CLEAR     46  37  71 S3        30.02F
FORT WAYNE     CLOUDY    47  38  71 S7        30.05F
PERU/GRISSOM   MOCLDY    45  44  96 S8        30.04F

$$
INZ028>050-200200-
CENTRAL INDIANA

CITY           SKY/WX    TMP DP  RH WIND       PRES   REMARKS
LAFAYETTE      PTCLDY    49  41  74 SW7       30.06S
KOKOMO*        MOCLDY    46  37  71 S6        30.06F
MUNCIE*        PTCLDY    49  38  65 SW5       30.06F
INDIANAPOLIS   PTCLDY    47  39  74 S8        30.08F

$$
MIZ043>046-050>051-056>058-064>065-071>073-077>080-200200-
SOUTHWEST LOWER MICHIGAN

CITY           SKY/WX    TMP DP  RH WIND       PRES   REMARKS
BATTLE CREEK   MOCLDY    48  37  65 S10       29.98F
BENTON HARBOR  MOCLDY    47  39  74 S6        29.98F
COLDWATER*     CLOUDY    50  37  62 S5        29.99F
HILLSDALE*     CLOUDY    48  37  64 SW5       30.01F
HOLLAND        MOCLDY    48  39  71 S5        29.96F
GRAND RAPIDS   MOCLDY    46  38  73 S8        29.95F
KALAMAZOO      MOCLDY    47  39  74 S9        29.99F
STURGIS*       CLOUDY    46  39  76 S8        30.00F
THREE RIVERS*  FAIR      49  40  70 S8        30.00F

$$
OHZ001>008-015>018-024>025-200200-
NORTHWEST OHIO

CITY           SKY/WX    TMP DP  RH WIND       PRES   REMARKS
DEFIANCE       CLOUDY    47  37  68 S3        30.05F
FINDLAY        MOCLDY    46  32  58 S6        30.05F
TOLEDO EXPRESS CLOUDY    45  34  65 S5        30.04F
TOLEDO METCALF CLOUDY    47  33  58 S7        30.05F
LIMA           MOCLDY    47  34  60 S7        30.05F

$$
AND FOR LAKE MICHIGAN COASTAL AND OPEN LAKE BUOY OBSERVATIONS

STATION/POSITION TEMP    WIND        PRES    VSBY  WAVE
                 AIR SEA DIR/SP/G                  HT/PER
                 (F)     (DEG/KT/KT) (MB)    (MI)  (FT/S)
CALUMET HARBOR    53     180/ 10/ 15 1013.9F
MICHIGAN CITY     53     170/  9/ 11   N/A
SAINT JOSEPH      51                 1015.6F
SOUTH LAKE BUOY   54 55  210/ 21/ 25 1014.2F         5/ 5

$$
&&



USA.gov is the U.S. government's official web portal to all federal, state and local government web resources and services.